Location: Unspecified
(0.0000°N, 0.0000°E)
Time: 20:57:08
(UTC+00:00)

deb Blok Kosmos - Visible Passes

Search period start: 09 June 2026 00:00
Search period end: 19 June 2026 00:00
Orbit: 1183 x 1738 km, 55.6° (Epoch: 8 June)

Date Brightness Start Highest point End Pass type
(mag) Time Alt. Az. Time Alt. Az. Time Alt. Az.
9 Jun ? 18:57:38 10° SSW 19:06:38 83° ESE 19:16:41 10° NNE visible
9 Jun ? 21:01:45 10° W 21:07:24 17° NW 21:13:21 10° NNW visible
10 Jun ? 05:31:40 10° N 05:38:14 23° NE 05:44:16 10° ESE visible
10 Jun ? 19:57:46 10° WSW 20:05:56 35° WNW 20:14:51 10° N visible
11 Jun ? 18:55:48 10° SW 19:04:43 69° WNW 19:14:41 10° NNE visible
12 Jun ? 05:28:31 10° N 05:36:30 36° ENE 05:43:41 10° ESE visible
12 Jun ? 19:57:19 10° WSW 20:04:14 23° NW 20:11:39 10° N visible
13 Jun ? 04:29:57 10° NNE 04:35:09 16° NE 04:40:01 10° E visible
13 Jun ? 18:54:22 10° SW 19:02:52 46° WNW 19:12:19 10° NNE visible
14 Jun ? 05:25:56 10° NNW 05:34:42 56° ENE 05:42:28 10° SE visible
14 Jun ? 19:58:10 10° W 20:02:38 14° NW 20:07:18 10° NNW visible
15 Jun ? 04:26:12 10° N 04:33:30 27° NE 04:40:09 10° ESE visible
15 Jun ? 18:53:26 10° WSW 19:01:06 31° WNW 19:09:29 10° N visible
16 Jun ? 03:29:20 10° NE 03:31:59 11° NE 03:34:34 10° ENE visible
16 Jun ? 05:23:46 10° NNW 05:32:48 85° ENE 05:40:48 10° SSE visible
17 Jun ? 04:23:16 10° N 04:31:45 42° ENE 04:39:19 10° SE visible
17 Jun ? 18:53:17 10° W 18:59:26 20° NW 19:05:59 10° NNW visible
18 Jun ? 03:24:12 10° N 03:30:26 20° NE 03:36:12 10° E visible
18 Jun ? 05:21:59 10° NW 05:30:50 64° WSW 05:38:43 10° SSE visible
